Weather History for Easton, MD

Change the Weather History Date:

Monday, February 18, 2013

  Actual Average Record
Temperature  
Mean Temperature 30 °F -  
Max Temperature 39 °F 46 °F 75 °F (1976)
Min Temperature 22 °F 26 °F 9 °F (1958)
Degree Days  
Heating Degree Days 34    
Moisture  
Dew Point 13 °F    
Average Humidity 54    
Maximum Humidity 78    
Minimum Humidity 33    
Precipitation  
Precipitation 0.00 in - - ()
Sea Level Pressure  
Sea Level Pressure 30.30 in    
Wind  
Wind Speed 15 mph (WNW)    
Max Wind Speed 25 mph    
Max Gust Speed 33 mph    
Visibility 10 miles    
Events      
Averages and records for this station are not official NWS values.
T = Trace of Precipitation, MM = Missing Value Source: NWS Daily Summary

Daily Weather History Graph

Daily Weather History Graph

Search for Another Location

Airport:

Trip Planner

Search our weather history database for the weather conditions in past years. The results will help you decide how hot, cold, wet, or windy it might be!

Date:

Astronomy

Feb. 18, 2013 Rise Set
Actual Time 6:51 AM EST 5:45 PM EST
Civil Twilight 6:24 AM EST 6:12 PM EST
Nautical Twilight 5:53 AM EST 6:43 PM EST
Astronomical Twilight 5:22 AM EST 7:14 PM EST
Moon 11:31 AM EST (2/18) 1:27 AM EST (2/18)
Length of Visible Light 11h 48m
Length of Day
10h 54m
First Quarter, 58% of the Moon is Illuminated
Feb 18
First Quarter
Feb 25
Full
Mar 4
Last Quarter
Mar 11
New
Mar 19
First Quarter

Hourly Weather History & Observations

Time (EST) Temp. Windchill Dew Point Humidity Pressure Visibility Wind Dir Wind Speed Gust Speed Precip Events Conditions
12:02 AM 25.3 °F 11.4 °F 9.1 °F 50% 30.21 in 10.0 mi NNW 19.6 mph 31.1 mph N/A   Scattered Clouds
12:22 AM 25.2 °F 9.5 °F 9.1 °F 51% 30.21 in 10.0 mi NNW 25.3 mph 32.2 mph N/A   Scattered Clouds
12:42 AM 24.8 °F 10.7 °F 9.7 °F 53% 30.22 in 10.0 mi NNW 19.6 mph 28.8 mph N/A   Clear
1:02 AM 24.8 °F 11.1 °F 9.0 °F 51% 30.23 in 10.0 mi NNW 18.4 mph 33.4 mph N/A   Clear
1:23 AM 24.6 °F 9.7 °F 8.8 °F 51% 30.24 in 10.0 mi NNW 21.9 mph 32.2 mph N/A   Clear
1:43 AM 24.4 °F 9.2 °F 9.1 °F 52% 30.24 in 10.0 mi NNW 23.0 mph 29.9 mph N/A   Clear
2:03 AM 24.4 °F 10.2 °F 8.2 °F 50% 30.25 in 10.0 mi NNW 19.6 mph 32.2 mph N/A   Clear
2:23 AM 24.1 °F 12.0 °F 7.7 °F 50% 30.25 in 10.0 mi NNW 13.8 mph 26.5 mph N/A   Clear
2:43 AM 23.9 °F 10.3 °F 8.6 °F 52% 30.25 in 10.0 mi NNW 17.3 mph 26.5 mph N/A   Clear
3:03 AM 23.5 °F 9.9 °F 9.0 °F 54% 30.26 in 10.0 mi NNW 17.3 mph 23.0 mph N/A   Clear
3:23 AM 23.7 °F 11.5 °F 9.3 °F 54% 30.27 in 10.0 mi NW 13.8 mph 26.5 mph N/A   Clear
3:43 AM 23.7 °F 9.3 °F 9.3 °F 54% 30.28 in 10.0 mi NW 19.6 mph 27.6 mph N/A   Clear
4:03 AM 23.5 °F 11.3 °F 9.5 °F 55% 30.29 in 10.0 mi NW 13.8 mph 24.2 mph N/A   Clear
4:23 AM 23.4 °F 12.2 °F 9.3 °F 55% 30.29 in 10.0 mi NW 11.5 mph 17.3 mph N/A   Clear
4:43 AM 22.8 °F 10.9 °F 9.3 °F 56% 30.30 in 10.0 mi NW 12.7 mph - N/A   Clear
5:03 AM 23.0 °F 11.1 °F 9.3 °F 56% 30.31 in 10.0 mi NW 12.7 mph - N/A   Clear
5:23 AM 23.0 °F 10.6 °F 9.5 °F 56% 30.32 in 10.0 mi NW 13.8 mph 20.7 mph N/A   Clear
5:43 AM 22.8 °F 11.5 °F 8.8 °F 55% 30.33 in 10.0 mi NW 11.5 mph 20.7 mph N/A   Clear
5:52 AM 23.0 °F 13.9 °F 8.6 °F 54% 30.34 in 10.0 mi WNW 8.1 mph 17.3 mph N/A   Clear
6:03 AM 23.0 °F 12.4 °F 8.6 °F 54% 30.34 in 10.0 mi NW 10.4 mph 18.4 mph N/A   Clear
6:23 AM 22.6 °F 10.7 °F 9.1 °F 56% 30.35 in 10.0 mi NW 12.7 mph 19.6 mph N/A   Clear
6:40 AM 22.8 °F 11.5 °F 9.0 °F 55% 30.36 in 10.0 mi NW 11.5 mph 23.0 mph N/A   Clear
6:50 AM 23.0 °F 10.1 °F 8.6 °F 54% 30.36 in 10.0 mi NW 15.0 mph 23.0 mph N/A   Clear
7:52 AM 26.6 °F 16.2 °F 10.4 °F 51% 30.39 in 10.0 mi WNW 11.5 mph 19.6 mph N/A   Clear
8:54 AM 26.6 °F 15.2 °F 10.4 °F 51% 30.41 in 10.0 mi WNW 13.8 mph 23.0 mph N/A   Clear
9:57 AM 28.4 °F 18.5 °F 10.4 °F 47% 30.41 in 10.0 mi NW 11.5 mph 19.6 mph N/A   Clear
10:55 AM 32.0 °F 24.2 °F 12.2 °F 44% 30.41 in 10.0 mi WNW 9.2 mph - N/A   Clear
11:57 AM 32.0 °F 24.8 °F 12.2 °F 44% 30.39 in 10.0 mi West 8.1 mph - N/A   Clear
12:50 PM 33.8 °F 25.3 °F 12.2 °F 41% 30.37 in 10.0 mi NW 11.5 mph - N/A   Clear
1:50 PM 35.6 °F 27.5 °F 12.2 °F 38% 30.35 in 10.0 mi WSW 11.5 mph - N/A   Clear
2:50 PM 39.2 °F 33.0 °F 12.2 °F 33% 30.32 in 10.0 mi WSW 9.2 mph - N/A   Clear
3:50 PM 39.2 °F 33.0 °F 12.2 °F 33% 30.31 in 10.0 mi SW 9.2 mph - N/A   Clear
4:53 PM 37.4 °F 29.8 °F 14.0 °F 38% 30.30 in 10.0 mi SW 11.5 mph - N/A   Partly Cloudy
5:53 PM 33.8 °F 28.6 °F 15.8 °F 48% 30.31 in 10.0 mi SSW 5.8 mph - N/A   Partly Cloudy
6:53 PM 32.0 °F 26.4 °F 15.8 °F 51% 30.32 in 10.0 mi South 5.8 mph - N/A   Clear
7:53 PM 30.2 °F 23.4 °F 17.6 °F 60% 30.31 in 10.0 mi South 6.9 mph - N/A   Clear
8:53 PM 32.0 °F 26.4 °F 23.0 °F 69% 30.29 in 10.0 mi South 5.8 mph - N/A   Clear
10:05 PM 32.9 °F 25.9 °F 25.9 °F 75% 30.27 in 10.0 mi South 8.1 mph - N/A   Clear
10:25 PM 33.1 °F 26.1 °F 26.8 °F 78% 30.26 in 10.0 mi South 8.1 mph - N/A   Clear
10:45 PM 34.0 °F 26.6 °F 27.3 °F 77% 30.26 in 10.0 mi South 9.2 mph - N/A   Clear
11:05 PM 33.8 °F 27.0 °F 27.3 °F 77% 30.25 in 10.0 mi South 8.1 mph - N/A   Clear
11:25 PM 33.8 °F 27.0 °F 27.7 °F 78% 30.25 in 10.0 mi South 8.1 mph - N/A   Clear
11:45 PM 34.0 °F 26.6 °F 27.9 °F 78% 30.25 in 10.0 mi South 9.2 mph - N/A   Clear